Location: Acts Church of Fort Worth
(32.6786°N, 97.2668°W)
Time: 09:33:40
(UTC+00:00)

BREEZE-M DEB (TANK) - Pass Details

Date: 18 January 2026
Orbit: 320 x 13114 km, 49.6° (Epoch: 9 February)

Event Time Altitude Azimuth Distance (km) Brightness Sun altitude
Exits shadow 10:50:41 78° 108° (ESE) 1,133 4.2 -33.3°
Drops below altitude 10° 11:04:53 10° 50° (NE) 6,561 8.7 -30.4°
Sets 11:14:15 0° 51° (NE) 9,725 9.7 -28.4°
